Waarnemingen

Advertentie
Mijn weer
Ronneby, Zweden (2664): temperatuur & dauwpunt: 12.06.2018 03:00:00 - 18.06.2018 03:00:00 (CEST)Ronneby, Zweden (2664): windsnelheid & windstoten: 12.06.2018 03:00:00 - 18.06.2018 03:00:00 (CEST)Ronneby, Zweden (2664): windrichting: 12.06.2018 03:00:00 - 18.06.2018 03:00:00 (CEST)Ronneby, Zweden (2664): luchtdruk: 12.06.2018 03:00:00 - 18.06.2018 03:00:00 (CEST)Ronneby, Zweden (2664): zicht: 12.06.2018 03:00:00 - 18.06.2018 03:00:00 (CEST)Ronneby, Zweden (2664): neerslag: 12.06.2018 03:00:00 - 18.06.2018 03:00:00 (CEST)
Datum & Tijd tt [°C] td [°C] ff [km/u] ff [kn] fx [km/u] fx [kn] dd ppp [hPa] vv [km] rr [mm]
18.06.2018 03:00:00 13,7 8,3 11 6 18 10 W 1016,2 10 0,0
18.06.2018 02:00:00 14,2 9,4 8 4 14 8 WZW 1015,8 10 0,0
18.06.2018 01:00:00 14,9 9,9 5 3 11 6 WZW 1015,6 10 0,0
18.06.2018 00:00:00 14,5 10,3 5 3 11 6 W 1015,5 10 0,0
17.06.2018 23:00:00 15,9 10,0 8 4 14 8 ZW 1015,0 10 0,0
17.06.2018 22:00:00 16,3 8,5 9 5 18 10 W 1014,7 10 0,0
17.06.2018 21:00:00 17,5 8,4 11 6 22 12 W 1014,1 10 0,0
17.06.2018 20:00:00 18,7 11,3 18 10 36 19 WNW 1013,4 10 0,0
17.06.2018 19:00:00 21,2 11,5 16 9 32 18 WZW 1012,4 10 0,0
17.06.2018 18:00:00 21,1 14,0 18 10 36 19 ZW 1012,2 10 0,0
17.06.2018 17:00:00 21,1 15,4 22 12 36 19 ZZW 1012,0 10 0,0
17.06.2018 16:00:00 20,0 16,6 22 12 36 19 ZZW 1012,0 10 0,0
17.06.2018 15:00:00 20,7 15,9 18 10 36 19 ZW 1012,0 10 0,0
17.06.2018 14:00:00 20,7 16,3 11 6 18 10 WZW 1012,1 10 0,0
17.06.2018 13:00:00 19,3 16,1 4 2 11 6 - 1011,7 10 0,0
17.06.2018 12:00:00 17,4 15,9 9 5 25 14 ZW 1012,3 10 0,5
17.06.2018 11:00:00 19,6 15,9 18 10 25 14 Z 1012,3 10 0,0
17.06.2018 10:00:00 19,0 16,0 16 9 25 14 ZO 1012,5 10 0,0
17.06.2018 09:00:00 17,1 16,1 16 9 25 14 OZO 1013,0 10 0,0
17.06.2018 08:00:00 15,9 15,3 18 10 25 14 O 1013,2 10 0,0
17.06.2018 07:00:00 14,6 13,6 16 9 22 12 O 1013,9 10 2,0
17.06.2018 06:00:00 14,0 13,4 8 4 14 8 OZO 1014,7 10 1,0
17.06.2018 05:00:00 14,1 13,1 9 5 14 8 OZO 1014,8 10 0,3
17.06.2018 04:00:00 14,0 12,6 5 3 18 10 NO 1015,6 10 0,0
17.06.2018 03:00:00 14,0 12,6 4 2 18 10 - 1016,5 10 0,0
17.06.2018 02:00:00 14,0 12,0 4 2 11 6 - 1015,8 10 0,0
17.06.2018 01:00:00 14,2 11,7 5 3 11 6 OZO 1016,2 10 0,0
17.06.2018 00:00:00 11,7 9,8 5 3 11 6 O 1016,4 10 0,0
16.06.2018 23:00:00 12,4 10,1 2 1 7 4 - 1016,7 10 0,0
16.06.2018 22:00:00 16,0 11,0 8 4 11 6 ZO 1016,8 10 0,0
16.06.2018 21:00:00 16,9 9,1 9 5 14 8 ZZO 1016,6 10 0,0
16.06.2018 20:00:00 18,6 8,6 8 4 11 6 Z 1016,6 10 0,0
16.06.2018 19:00:00 18,6 9,1 11 6 18 10 Z 1016,8 10 0,0
16.06.2018 18:00:00 19,7 8,7 15 8 25 14 ZZW 1017,2 10 0,0
16.06.2018 17:00:00 20,8 9,4 16 9 25 14 ZZW 1017,5 10 0,0
16.06.2018 16:00:00 21,3 8,6 13 7 25 14 ZW 1017,3 10 0,0
16.06.2018 15:00:00 20,8 8,4 16 9 29 16 Z 1017,6 10 0,0
16.06.2018 14:00:00 20,9 8,8 13 7 25 14 ZW 1018,0 10 0,0
16.06.2018 13:00:00 20,8 9,1 13 7 25 14 ZW 1018,2 10 0,0
16.06.2018 12:00:00 20,2 9,4 13 7 25 14 WZW 1018,5 10 0,0
16.06.2018 11:00:00 19,5 8,5 9 5 22 12 WNW 1018,4 10 0,0
16.06.2018 10:00:00 19,8 8,5 5 3 22 12 - 1018,5 10 0,0
16.06.2018 09:00:00 19,0 8,9 5 3 14 8 - 1018,5 10 0,0
16.06.2018 08:00:00 17,3 9,7 5 3 11 6 NNO 1018,6 10 0,0
16.06.2018 07:00:00 14,3 9,9 4 2 7 4 NNO 1018,7 45 0,0
16.06.2018 06:00:00 9,7 8,6 4 2 7 4 N 1018,9 45 0,0
16.06.2018 05:00:00 6,8 6,1 7 4 11 6 NNO 1018,9 45 0,0
16.06.2018 04:00:00 6,5 5,9 4 2 7 4 N 1018,6 45 0,0
16.06.2018 03:00:00 7,1 5,9 4 2 7 4 N 1018,3 45 0,0
16.06.2018 02:00:00 7,9 6,4 4 2 7 4 N 1018,0 50 0,0
16.06.2018 01:00:00 9,1 7,0 0 0 4 2 N 1017,7 45 0,0
16.06.2018 00:00:00 10,9 6,8 4 2 7 4 WNW 1017,5 10 0,0
15.06.2018 23:00:00 14,6 7,2 4 2 14 8 WNW 1017,1 10 0,0
15.06.2018 22:00:00 16,8 7,2 8 4 14 8 WNW 1016,7 10 0,0
15.06.2018 21:00:00 19,1 7,8 11 6 18 10 WNW 1016,1 10 0,0
15.06.2018 20:00:00 20,1 12,6 9 5 22 12 ZW 1015,7 10 0,0
15.06.2018 19:00:00 20,5 12,7 11 6 22 12 ZW 1015,5 10 0,0
15.06.2018 18:00:00 20,7 12,9 15 8 25 14 ZZW 1015,5 10 0,0
15.06.2018 17:00:00 20,4 12,4 16 9 32 18 ZW 1015,6 10 0,0
15.06.2018 16:00:00 20,8 13,0 18 10 32 18 ZZW 1015,3 10 0,0
15.06.2018 15:00:00 20,8 12,2 21 11 29 16 ZW 1015,2 10 0,0
15.06.2018 14:00:00 20,2 11,9 18 10 36 19 ZW 1015,1 10 0,0
15.06.2018 13:00:00 20,5 11,7 15 8 25 14 ZW 1015,0 10 0,0
15.06.2018 12:00:00 19,2 11,2 13 7 29 16 WZW 1014,8 10 0,0
15.06.2018 11:00:00 19,4 10,9 11 6 29 16 W 1014,7 10 0,0
15.06.2018 10:00:00 18,7 11,8 8 4 18 10 ZW 1014,4 10 0,0
15.06.2018 09:00:00 17,0 12,1 9 5 22 12 W 1014,3 10 0,0
15.06.2018 08:00:00 17,0 12,9 13 7 22 12 W 1013,8 10 0,0
15.06.2018 07:00:00 15,0 14,0 8 4 - - W - 10 -
15.06.2018 06:00:00 15,2 13,7 9 5 22 12 WZW 1013,0 10 0,0
15.06.2018 05:00:00 15,7 13,2 11 6 22 12 WZW 1012,6 10 0,0
15.06.2018 04:00:00 15,8 12,9 11 6 18 10 ZW 1012,4 10 0,0
15.06.2018 03:00:00 16,0 12,9 8 4 18 10 ZZW 1012,2 10 0,0
15.06.2018 02:00:00 16,5 13,1 11 6 25 14 ZW 1012,1 10 0,0
15.06.2018 01:00:00 16,2 13,5 9 5 25 14 ZW 1012,2 10 0,0
15.06.2018 00:00:00 16,0 13,3 11 6 25 14 ZZW 1012,1 10 0,0
14.06.2018 23:00:00 15,9 13,2 13 7 25 14 ZZW 1012,1 10 0,0
14.06.2018 22:00:00 16,1 13,2 13 7 25 14 ZW 1012,1 10 0,0
14.06.2018 21:00:00 16,3 12,8 13 7 25 14 ZZW 1011,8 10 0,0
14.06.2018 20:00:00 17,3 12,4 16 9 32 18 ZW 1011,6 10 0,0
14.06.2018 19:00:00 17,7 12,6 21 11 36 19 ZZW 1011,5 10 0,0
14.06.2018 18:00:00 17,8 13,1 18 10 32 18 ZW 1011,6 10 0,0
14.06.2018 17:00:00 18,4 11,0 18 10 32 18 ZW 1011,9 10 0,0
14.06.2018 16:00:00 18,0 10,1 18 10 32 18 ZZW 1012,1 10 0,0
14.06.2018 15:00:00 18,6 9,9 18 10 36 19 Z 1012,3 10 0,0
14.06.2018 14:00:00 18,5 9,6 11 6 25 14 WZW 1012,4 10 0,0
14.06.2018 13:00:00 17,5 9,1 16 9 25 14 ZW 1012,6 10 0,0
14.06.2018 12:00:00 16,7 9,4 15 8 25 14 ZW 1013,0 10 0,0
14.06.2018 11:00:00 16,5 9,7 13 7 25 14 WZW 1012,8 10 0,0
14.06.2018 10:00:00 16,0 10,3 11 6 25 14 WZW 1012,8 10 0,0
14.06.2018 09:00:00 15,1 10,5 11 6 22 12 W 1012,7 10 0,0
14.06.2018 08:00:00 14,6 10,8 8 4 14 8 W 1012,6 10 0,0
14.06.2018 07:00:00 13,2 11,3 5 3 7 4 WNW 1012,6 10 0,0
14.06.2018 06:00:00 11,0 10,8 4 2 7 4 W 1012,4 10 0,0
14.06.2018 05:00:00 10,5 10,3 2 1 11 6 WNW 1012,0 10 0,0
14.06.2018 04:00:00 11,3 10,8 9 5 18 10 WNW 1011,7 10 0,0
14.06.2018 03:00:00 11,2 11,2 9 5 11 6 W 1011,2 10 0,0
14.06.2018 02:00:00 11,9 11,7 2 1 11 6 - 1010,7 10 0,0
14.06.2018 01:00:00 12,9 12,9 9 5 11 6 WNW 1010,7 10 0,0
14.06.2018 00:00:00 11,8 11,8 4 2 7 4 - 1010,6 10 0,0
13.06.2018 23:00:00 13,0 12,8 2 1 4 2 W 1010,3 10 0,0
13.06.2018 22:00:00 14,6 14,1 2 1 7 4 WZW 1009,8 10 0,0
13.06.2018 21:00:00 16,7 14,3 5 3 11 6 W 1009,2 10 0,0
13.06.2018 20:00:00 17,7 14,2 5 3 11 6 W 1008,8 10 0,0
13.06.2018 19:00:00 17,8 15,1 8 4 7 4 ZZW 1008,7 10 0,2
13.06.2018 18:00:00 17,3 15,5 4 2 7 4 - 1008,5 10 0,0
13.06.2018 17:00:00 17,0 15,3 8 4 18 10 - 1008,6 10 0,0
13.06.2018 16:00:00 17,9 15,0 13 7 22 12 Z 1008,3 10 0,0
13.06.2018 15:00:00 19,3 15,6 15 8 22 12 Z 1007,9 10 0,0
13.06.2018 14:00:00 19,1 15,2 11 6 22 12 Z 1007,8 10 0,2
13.06.2018 13:00:00 18,3 16,3 8 4 14 8 ZO 1007,6 10 0,1
13.06.2018 12:00:00 17,6 15,6 9 5 14 8 ZZO 1007,9 10 0,0
13.06.2018 11:00:00 17,6 15,6 4 2 11 6 - 1007,9 10 0,0
13.06.2018 10:00:00 15,7 15,4 8 4 11 6 OZO 1008,0 10 0,9
13.06.2018 09:00:00 15,0 14,5 4 2 14 8 ZZW 1007,8 10 1,0
13.06.2018 08:00:00 15,2 14,2 8 4 14 8 NNW 1007,3 10 0,0
13.06.2018 07:00:00 14,7 13,7 5 3 7 4 NW 1007,2 10 0,0
13.06.2018 06:00:00 13,6 13,4 2 1 7 4 - 1007,4 10 0,0
13.06.2018 05:00:00 11,8 11,6 4 2 4 2 WNW 1007,6 10 0,0
13.06.2018 04:00:00 11,8 11,6 2 1 4 2 W 1007,4 10 0,0
13.06.2018 03:00:00 12,7 12,2 2 1 4 2 NW 1007,3 10 0,0
13.06.2018 02:00:00 13,1 12,6 2 1 4 2 N 1007,4 10 0,0
13.06.2018 01:00:00 13,3 12,5 4 2 7 4 N 1007,5 10 0,0
13.06.2018 00:00:00 14,8 13,3 5 3 7 4 N 1007,2 10 0,0
12.06.2018 23:00:00 16,3 13,6 8 4 7 4 NNO 1007,4 10 0,0
12.06.2018 22:00:00 17,8 14,1 5 3 11 6 NW 1007,1 10 0,0
12.06.2018 21:00:00 18,8 14,5 11 6 14 8 W 1006,6 10 0,0
12.06.2018 20:00:00 19,8 14,4 8 4 18 10 W 1006,2 10 0,0
12.06.2018 19:00:00 20,1 14,0 13 7 22 12 WZW 1006,1 10 0,0
12.06.2018 18:00:00 20,7 14,1 8 4 18 10 WZW 1006,1 10 0,0
12.06.2018 17:00:00 21,5 11,8 8 4 14 8 NW 1006,0 10 0,0
12.06.2018 16:00:00 21,8 11,8 9 5 22 12 WNW 1005,8 10 0,0
12.06.2018 15:00:00 21,6 12,2 13 7 25 14 W 1005,8 10 0,0
12.06.2018 14:00:00 22,0 12,5 13 7 25 14 NNW 1005,9 10 0,0
12.06.2018 13:00:00 21,0 11,9 15 8 32 18 NNW 1005,7 10 0,0
12.06.2018 12:00:00 20,5 12,7 13 7 25 14 NW 1005,5 10 0,0
12.06.2018 11:00:00 19,6 12,6 13 7 22 12 NW 1005,2 10 0,0
12.06.2018 10:00:00 18,1 12,3 13 7 22 12 NW 1004,8 10 0,0
12.06.2018 09:00:00 16,9 12,2 15 8 25 14 NW 1004,5 10 0,0
12.06.2018 08:00:00 16,0 13,0 9 5 - - NW - 10 -
12.06.2018 07:00:00 15,9 12,4 9 5 22 12 WNW 1004,3 10 0,0
12.06.2018 06:00:00 14,0 12,7 11 6 18 10 WNW 1003,7 45 0,0
12.06.2018 05:00:00 13,5 12,7 11 6 22 12 W 1003,2 10 0,0
12.06.2018 04:00:00 13,4 12,5 13 7 22 12 W 1003,1 10 0,0
12.06.2018 03:00:00 13,8 12,2 15 8 22 12 W 1003,4 10 0,0

tt = temperatuur
td = dauwpunt
ff = windsnelheid
fx = windstoten
dd = windrichting
ppp = luchtdruk
vv = zicht
rr = neerslag

Weerstations in de omgeving